Preview of NWS' New Version of Forecast
This preview is not operational and should not be used for support decisions.

Regional Weather Roundup (RWR)

Issued by Gray - Portland, ME (GYX)

                            
000
ASUS41 KGYX 262010
RWRGYX
WEATHER ROUNDUP FOR MAINE AND NEW HAMPSHIRE
NATIONAL WEATHER SERVICE GRAY ME
400 PM EDT SAT MAY 26 2018

MEZ002-005-006-010-012-015-018-020-021-024-026-027-029-262100-
MAINE
  
CITY           SKY/WX    TMP DP  RH WIND       PRES   REMARKS
PORTLAND       CLOUDY    72  64  76 VRB6      29.81R                  
SANFORD        FAIR      77  64  64 NE14      29.79R                  
BAR HARBOR     PTSUNNY   74  60  61 N9        29.78R                  
WISCASSET      RAIN      67  66  97 VRB5      29.82R FOG              
ROCKLAND       FAIR      71  66  84 SW8       29.78R                  
FRYEBURG       LGT RAIN  67  65  93 NE5       29.83R                  
LEWISTONAUBURN LGT RAIN  67  65  93 VRB3      29.82R                  
AUGUSTA        FAIR      69  65  86 VRB5      29.81R                  
WATERVILLE     PTSUNNY   73  60  63 NW6       29.77R                  
BANGOR         CLOUDY    76  49  38 N12       29.79R                  
GREENVILLE       N/A     66  41  40 NW13G21   29.83R                  
MILLINOCKET    FAIR      71  39  31 NE13      29.83R                  
HOULTON        NOT AVBL                                               
PRESQUE ISLE   FAIR      65  32  29 NW16G22   29.87R                  
FRENCHVILLE    FAIR      63  29  27 N17G29    29.88R                  
CARIBOU        FAIR      65  30  27 N12G24    29.86R                  
$$

NHZ002-005-008-009-011-012-014-262100-
NEW HAMPSHIRE
  
CITY           SKY/WX    TMP DP  RH WIND       PRES   REMARKS
PORTSMOUTH     CLOUDY    84  57  39 N9        29.75R                  
ROCHESTER      NOT AVBL                                               
NASHUA         FAIR      86  60  41 VRB5      29.76R                  
MANCHESTER     CLOUDY    88  58  36 NE7       29.74R                  
CONCORD        FAIR      81  61  50 NE6       29.77R                  
LACONIA        CLOUDY    77  60  55 N7        29.81R                  
BERLIN         PTSUNNY   70  63  78 CALM      29.85R                  
WHITEFIELD     CLOUDY    67  64  90 CALM      29.86R                  
JAFFREY        FAIR      84  58  40 VRB5      29.80S                  
KEENE          FAIR      86  61  42 SW6       29.77R                  
LEBANON        RAIN      70  63  78 MISG      29.81R                  
MT WASHINGTON  LGT RAIN  48  48 100 W28         N/A  VSB 0            
$$

VTZ005-007-008-262100-
VERMONT
  
CITY           SKY/WX    TMP DP  RH WIND       PRES   REMARKS
ST JOHNSBURY     N/A     66  65  96 MISG      29.84R                  
MONTPELIER     LGT RAIN  64  64 100 NW3       29.91R                  
BURLINGTON     LGT RAIN  65  62  90 N3        29.86R FOG              
$$

MAZ007-012-024-CTZ003-RIZ002-NYZ038-NYZ072-262100-
SOUTHERN NEW ENGLAND AND NY
  
CITY           SKY/WX    TMP DP  RH WIND       PRES   REMARKS
BOSTON         CLOUDY    87  55  33 W9        29.75S                  
WORCESTER      FAIR      83  52  34 SW12      29.81S                  
NANTUCKET      FAIR      60  58  92 SW12      29.82R                  
PROVIDENCE     FAIR      89  54  30 W14       29.76F                  
HARTFORD       PTSUNNY   89  52  28 W10       29.76S                  
ALBANY         CLOUDY    86  59  39 NW13      29.77S                  
NEW YORK CITY  PTSUNNY   90  62  39 SW10      29.76F HX  90           
$$

ANZ081-ANZ082-ANZ150-NHZ014-MEZ023>029-262100-
COASTAL MARINE OBSERVATIONS
  
STATION/POSITION TIME  TEMP    WIND        PRES    WAVE
                       AIR SEA DIR/SP/G            HT/PER
                 (UTC) (F)     (DEG/KT/KT) (MB)    (FT/S)
MOUNT DESERT ROC 1900   54     220/ 14/ 14 1007.7R
MATINICUS ROCK   1900   61     270/  9/ 10 1007.6R
ISLE OF SHOALS   1900   76     110/ 10/ 11 1006.9R
JEFFREYS LEDGE   1936      58                N/A     2/ 6
$$

.............KEY..............
   WCI - WIND CHILL
   TC  - TEMPERATURE IN CELSIUS
   VSB - VISIBILITY IN MILES
   HX  - HEAT INDEX
   FAIR- INDICATES FEW OR NO CLOUDS BELOW 12,000 FT, WITH NO 
         SIGNIFICANT WEATHER AND/OR OBSTRUCTIONS TO VISIBILITY.